Location: ??????
(30.5519°N, 47.7720°E)
Time: 18:00:12
(UTC+00:00)

H-2A R/B - Pass Details

Date: 24 January 2021
Orbit: 734 x 836 km, 98.2° (Epoch: 02 March)

Event Time Altitude Azimuth Distance (km) Brightness Sun altitude
Rises 15:59:35 0° 175° (S) 3,157 5.2 -21.8°
Reaches altitude 10° 16:01:51 10° 178° (S) 2,245 4.5 -22.3°
Maximum altitude 16:06:44 62° 259° (W) 844 2.4 -23.3°
Drops below altitude 10° 16:11:45 10° 340° (NNW) 2,310 4.6 -24.4°
Sets 16:14:08 0° 344° (NNW) 3,255 5.4 -24.9°
